GW1109 Weather Reports


time (UTC)temp
C
wind
direction
speed
KPH
gust
KPH
rain 1hr
cm
rain 24hr
cm
rain mn
cm
humidity
%
barometer
mb
20260903004559 16 180 3.2 11.3 0.00 0.00 0.00 92 1020.1
20260903003051 16 109 1.6 12.9 0.00 0.00 0.00 90 1020.1
20260903001553 16 0 0.0 9.7 0.00 0.00 0.00 88 1020.2
20260903000100 16 120 1.6 6.4 0.00 0.00 0.00 86 1020.4
20260902234606 16 173 1.6 8.0 0.00 0.00 0.00 84 1020.8
20260902233058 16 0 0.0 6.4 0.00 0.00 0.00 81 1021.1
20260902231555 16 168 0.0 4.8 0.00 0.00 0.00 79 1021.1
20260902230100 17 192 0.0 9.7 0.00 0.00 0.00 77 1021.1
20260902224559 17 173 0.0 9.7 0.00 0.00 0.00 75 1021.5
20260902223103 17 120 3.2 8.0 0.00 0.00 0.00 73 1021.5
20260902221605 18 177 1.6 8.0 0.00 0.00 0.00 71 1021.8
20260902220100 18 116 1.6 6.4 0.00 0.00 0.00 69 1021.8
20260902214557 18 150 1.6 12.9 0.00 0.00 0.00 66 1021.6
20260902213053 19 139 1.6 9.7 0.00 0.00 0.00 65 1021.5
20260902211550 19 155 3.2 11.3 0.00 0.00 0.00 64 1021.8
20260902210057 20 104 3.2 14.5 0.00 0.00 0.00 62 1021.5
20260902204559 20 36 4.8 11.3 0.00 0.00 0.00 61 1021.7
20260902203054 20 265 3.2 11.3 0.00 0.00 0.00 66 1021.8
20260902201607 19 204 4.8 14.5 0.00 0.00 0.00 62 1021.8
20260902200058 19 0 1.6 12.9 0.00 0.00 0.00 61 1022.1
20260902194557 19 178 6.4 11.3 0.00 0.00 0.00 59 1022.4
20260902193058 20 153 4.8 12.9 0.00 0.00 0.00 60 1022.7
20260902191601 20 118 1.6 9.7 0.00 0.00 0.00 60 1022.5
20260902184557 19 135 4.8 11.3 0.00 0.00 0.00 59 1022.2
20260902183105 19 132 3.2 11.3 0.00 0.00 0.00 62 1022.5
20260902181555 18 136 3.2 11.3 0.00 0.00 0.00 62 1022.7
20260902180055 18 170 3.2 11.3 0.00 0.00 0.00 63 1022.9
20260902174559 18 40 1.6 9.7 0.00 0.00 0.00 69 1022.8
20260902173057 18 225 3.2 9.7 0.00 0.00 0.00 69 1022.9
20260902171605 18 162 1.6 9.7 0.00 0.00 0.00 70 1022.8
20260902170103 18 201 1.6 11.3 0.00 0.00 0.00 72 1022.9
20260902164601 19 124 4.8 12.9 0.00 0.00 0.00 73 1022.7
20260902163054 18 92 1.6 8.0 0.00 0.00 0.00 80 1022.8
20260902161608 18 148 1.6 9.7 0.00 0.00 0.00 80 1023.2
20260902160116 18 126 0.0 8.0 0.00 0.00 0.00 81 1023.4
20260902154601 18 103 1.6 8.0 0.00 0.00 0.00 81 1023.5
20260902153055 18 117 1.6 6.4 0.00 0.00 0.00 82 1023.6
20260902151609 18 196 1.6 11.3 0.00 0.00 0.00 82 1023.6
20260902150100 18 0 1.6 6.4 0.00 0.00 0.00 83 1023.5
20260902144556 18 0 1.6 6.4 0.00 0.00 0.00 85 1023.2
20260902143053 18 81 3.2 11.3 0.00 0.00 0.00 88 1023.1
20260902141558 18 171 4.8 12.9 0.00 0.00 0.00 96 1023.1
20260902140059 18 70 1.6 6.4 0.00 0.00 0.00 100 1023.0
20260902134556 19 194 0.0 6.4 0.00 0.00 0.00 100 1023.0
20260902133103 19 70 3.2 8.0 0.00 0.00 0.00 100 1023.0
20260902131550 19 0 1.6 6.4 0.00 0.00 0.00 100 1022.8
20260902130047 18 0 1.6 6.4 0.00 0.00 0.00 100 1022.9
20260902124555 18 80 1.6 6.4 0.00 0.00 0.00 100 1023.1
20260902123104 18 0 1.6 6.4 0.00 0.00 0.00 100 1022.9
20260902121603 19 0 1.6 4.8 0.00 0.00 0.00 100 1022.9
20260902120058 19 85 0.0 6.4 0.00 0.00 0.00 100 1022.9
20260902114555 18 98 1.6 8.0 0.00 0.00 0.00 100 1022.7
20260902113053 18 55 1.6 8.0 0.00 0.00 0.00 100 1022.8
20260902111548 19 326 0.0 9.7 0.00 0.00 0.00 100 1022.6
20260902110059 19 124 0.0 8.0 0.00 0.00 0.00 100 1022.4
20260902104601 19 0 0.0 6.4 0.00 0.00 0.00 100 1022.1
20260902103103 19 0 1.6 8.0 0.00 0.00 0.00 100 1021.9
20260902101557 19 101 0.0 9.7 0.00 0.00 0.00 100 1022.1
20260902100057 19 188 0.0 1.6 0.00 0.00 0.00 100 1022.0
20260902094554 18 188 0.0 1.6 0.00 0.00 0.00 100 1021.8
20260902093050 19 0 0.0 1.6 0.00 0.00 0.00 100 1021.9
20260902091600 19 0 0.0 1.6 0.00 0.00 0.00 100 1021.7
20260902090051 19 188 0.0 3.2 0.00 0.00 0.00 100 1021.7
20260902084555 19 0 0.0 3.2 0.00 0.00 0.00 100 1021.9
20260902083103 19 0 0.0 0.0 0.00 0.00 0.00 100 1021.8
20260902081555 19 0 0.0 1.6 0.00 0.00 0.00 100 1021.8
20260902080107 19 0 0.0 1.6 0.00 0.00 0.00 100 1021.9
20260902074602 19 0 0.0 1.6 0.00 0.00 0.00 100 1021.6
20260902073057 19 0 0.0 1.6 0.00 0.00 0.00 100 1021.7
20260902071550 18 0 0.0 1.6 0.00 0.00 0.00 100 1021.4
20260902070051 18 0 0.0 3.2 0.00 0.00 0.00 100 1021.4
20260902064548 18 0 0.0 3.2 0.00 0.00 0.00 100 1021.4
20260902063059 18 0 0.0 0.0 0.00 0.00 0.00 100 1021.3
20260902061610 18 0 0.0 1.6 0.00 0.00 0.00 100 1021.4
20260902060052 18 0 0.0 1.6 0.00 0.00 0.00 100 1021.5
20260902054559 18 63 0.0 1.6 0.00 0.00 0.00 100 1021.5
20260902053057 18 0 0.0 3.2 0.00 0.00 0.00 100 1021.3
20260902051551 18 67 0.0 3.2 0.00 0.00 0.00 100 1021.0
20260902050051 18 0 0.0 1.6 0.00 0.00 0.00 100 1020.8
20260902044558 18 0 0.0 3.2 0.00 0.00 0.00 100 1020.5
20260902043104 18 0 0.0 3.2 0.00 0.00 0.00 100 1020.4
20260902041551 18 0 0.0 3.2 0.00 0.00 0.00 99 1020.1
20260902040052 18 0 0.0 1.6 0.00 0.00 0.00 98 1020.0
20260902034547 17 0 0.0 0.0 0.00 0.00 0.00 98 1020.0
20260902033107 17 0 0.0 0.0 0.00 0.00 0.00 97 1020.1
20260902031554 17 0 0.0 0.0 0.00 0.00 0.00 96 1019.9
20260902030101 18 0 0.0 1.6 0.00 0.00 0.00 95 1019.7
20260902024559 18 0 0.0 1.6 0.00 0.00 0.00 94 1019.7
20260902023055 18 0 0.0 0.0 0.00 0.00 0.00 94 1019.7
20260902021609 18 0 0.0 1.6 0.00 0.00 0.00 93 1019.9
20260902020100 18 0 0.0 1.6 0.00 0.00 0.00 92 1019.8
20260902014602 18 0 0.0 0.0 0.00 0.00 0.00 92 1020.1
20260902013055 18 0 0.0 3.2 0.00 0.00 0.00 91 1020.1
20260902011603 18 0 0.0 1.6 0.00 0.00 0.00 91 1020.1
20260902010058 18 0 0.0 0.0 0.00 0.00 0.00 89 1019.9